Home > Weather > Kingston > Past weeks

Flag for Canada Past Weather in Kingston, Ontario, Canada — Yesterday and Last 2 Weeks

Now
73 °F

Partly sunny.


Feels Like: 77 °F
Forecast: 63 / 80 °F
Wind: 8 mph from Northeast

Location: Kingston

Current Time: Jul 24, 2016 at 10:57:07 AM

Latest Report: Jul 24, 2016 at 10:00 AM


Visibility: 15 mi

Pressure: 30.04 "Hg

Humidity: 53%

Dew Point: 55 °F

Location of KingstonLocation

Past Weather in Kingston — Graph

°F

Kingston Temperature Yesterday

Maximum temperature yesterday: 91 °F (at 2:00 PM)
Minimum temperature yesterday: 68 °F (at 6:00 AM)
Average temperature yesterday: 82 °F

High & Low Weather Summary for the Past Weeks

 TemperatureHumidityPressure
High91 °F (Jul 23, 2:00 PM)94% (Jul 9, 9:00 AM)30.25 "Hg (Jul 9, 9:00 AM)
Low52 °F (Jul 20, 6:00 AM)32% (Jul 23, 2:00 PM)29.67 "Hg (Jul 9, 2:00 PM)
Average74 °F67%29.95 "Hg
* Reported Jul 9 9:00 AM — Jul 24 9:00 AM, Kingston, Weather by CustomWeather, © 2016

Note: Actual official high and low records may vary slightly from our data, if they occured in-between our weather recording intervals... More about our weather records

Advertising

Kingston Weather History for the Previous 24 Hours

Scroll right to see more
 ConditionsComfort  
Time TempWeatherWind HumidityBarometerVisibility
9:00 AM
Sun, Jul 24
72 °FPartly sunny.9 mph61%30.04 "Hg15 mi
8:00 AM68 °FBroken clouds.7 mph69%30.05 "Hg15 mi
7:00 AM63 °FPartly sunny.8 mph83%30.04 "Hg15 mi
6:00 AM59 °FPassing clouds.7 mph88%30.02 "Hg15 mi
11:00 PM
Sat, Jul 23
72 °FPassing clouds.5 mph69%29.94 "Hg15 mi
10:00 PM75 °FPassing clouds.5 mph61%29.93 "Hg15 mi
9:00 PM79 °FPassing clouds.8 mph51%29.90 "Hg15 mi
8:00 PM82 °FPassing clouds.12 mph42%29.88 "Hg15 mi
7:00 PM86 °FPassing clouds.16 mph38%29.86 "Hg15 mi
6:00 PM88 °FScattered clouds.17 mph35%29.85 "Hg15 mi
5:00 PM91 °FScattered clouds.15 mph34%29.83 "Hg15 mi
4:00 PM88 °FPartly sunny.17 mph35%29.82 "Hg15 mi
3:00 PM90 °FPartly sunny.10 mph33%29.82 "Hg15 mi
2:00 PM91 °FBroken clouds.16 mph32%29.82 "Hg15 mi
1:00 PM86 °FPartly sunny.12 mph38%29.83 "Hg15 mi
12:00 PM88 °FPassing clouds.10 mph38%29.83 "Hg15 mi
11:00 AM84 °FPassing clouds.13 mph45%29.84 "Hg15 mi
10:00 AM82 °FScattered clouds.12 mph48%29.83 "Hg15 mi
Weather by CustomWeather, © 2016

See weather overviewHow to use our weather pages